FW7595 Weather Reports


time (UTC)temp
C
wind
direction
speed
KPH
gust
KPH
rain 1hr
cm
rain 24hr
cm
rain mn
cm
humidity
%
barometer
mb
20260507084549 13 341 1.6 4.8 0.00 0.00 0.00 81 1015.0
20260507083058 13 343 1.6 4.8 0.00 0.00 0.00 81 1015.1
20260507081546 13 344 0.0 4.8 0.00 0.00 0.00 80 1015.1
20260507080038 13 255 1.6 3.2 0.00 0.00 0.00 80 1015.1
20260507074536 13 256 1.6 3.2 0.00 0.00 0.00 80 1015.3
20260507073041 14 257 1.6 4.8 0.00 0.00 0.00 79 1015.1
20260507071535 14 255 0.0 3.2 0.00 0.00 0.00 78 1015.1
20260507070037 14 252 0.0 3.2 0.00 0.00 0.00 79 1015.3
20260507064631 15 252 0.0 3.2 0.00 0.00 0.00 77 1015.4
20260507063031 15 252 0.0 3.2 0.00 0.00 0.00 77 1015.5
20260507061529 15 252 1.6 4.8 0.00 0.00 0.00 77 1015.4
20260507060027 15 252 0.0 1.6 0.00 0.00 0.00 76 1015.4
20260507054533 15 252 1.6 3.2 0.00 0.00 0.00 76 1015.4
20260507053026 15 252 0.0 3.2 0.00 0.00 0.00 75 1015.4
20260507051527 15 252 1.6 4.8 0.00 0.00 0.00 76 1015.3
20260507050033 16 250 0.0 0.0 0.00 0.00 0.00 75 1015.2
20260507044534 16 251 0.0 1.6 0.00 0.00 0.00 74 1015.2
20260507043024 16 252 0.0 1.6 0.00 0.00 0.00 73 1015.1
20260507041530 16 252 0.0 3.2 0.00 0.00 0.00 72 1015.2
20260507040023 16 252 0.0 1.6 0.00 0.00 0.00 70 1015.2
20260507034523 17 252 0.0 3.2 0.00 0.00 0.00 69 1014.9
20260507033028 17 252 0.0 3.2 0.00 0.00 0.00 68 1014.6
20260507031526 17 252 0.0 1.6 0.00 0.00 0.00 66 1014.6
20260507030022 18 251 0.0 6.4 0.00 0.00 0.00 64 1014.4
20260507024523 19 259 0.0 4.8 0.00 0.00 0.00 61 1014.3
20260507023020 20 199 0.0 3.2 0.00 0.00 0.00 59 1014.2
20260507021520 21 183 0.0 4.8 0.00 0.00 0.00 56 1014.1
20260507020020 21 235 1.6 6.4 0.00 0.00 0.00 54 1013.9
20260507014526 22 262 1.6 8.0 0.00 0.00 0.00 52 1013.7
20260507013023 23 205 1.6 6.4 0.00 0.00 0.00 51 1013.6
20260507011520 23 270 3.2 8.0 0.00 0.00 0.00 49 1013.4
20260507010017 23 280 1.6 6.4 0.00 0.00 0.00 48 1013.4
20260507004531 24 281 3.2 12.9 0.00 0.00 0.00 47 1013.4
20260507003015 24 261 1.6 9.7 0.00 0.00 0.00 47 1013.3
20260507001514 24 263 3.2 11.3 0.00 0.00 0.00 46 1013.2
20260507000015 25 323 1.6 4.8 0.00 0.00 0.00 44 1013.2
20260506234510 23 239 0.0 11.3 0.00 0.00 0.00 46 1013.3
20260506233009 24 287 4.8 17.7 0.00 0.00 0.00 44 1013.2
20260506231519 25 296 6.4 17.7 0.00 0.00 0.00 43 1013.3
20260506230007 24 218 3.2 14.5 0.00 0.00 0.00 45 1013.4
20260506224507 25 258 3.2 14.5 0.00 0.00 0.00 44 1013.5
20260506223005 24 270 1.6 11.3 0.00 0.00 0.00 47 1013.6
20260506221503 23 264 4.8 16.1 0.00 0.00 0.00 47 1013.7
20260506220002 24 281 4.8 14.5 0.00 0.00 0.00 47 1014.0
20260506214559 25 281 3.2 11.3 0.00 0.00 0.00 44 1014.1
20260506213127 25 287 1.6 8.0 0.00 0.00 0.00 45 1014.3
20260506211606 25 259 4.8 14.5 0.00 0.00 0.00 46 1014.4
20260506210055 24 286 3.2 12.9 0.00 0.00 0.00 46 1014.5
20260506204556 24 292 4.8 16.1 0.00 0.00 0.00 43 1014.7
20260506203049 24 277 0.0 11.3 0.00 0.00 0.00 42 1014.7
20260506201557 24 279 3.2 11.3 0.00 0.00 0.00 42 1014.9
20260506200146 23 273 3.2 8.0 0.00 0.00 0.00 45 1015.0
20260506194554 23 265 0.0 11.3 0.00 0.00 0.00 45 1015.2
20260506193139 23 256 1.6 6.4 0.00 0.00 0.00 46 1015.4
20260506191540 22 281 3.2 8.0 0.00 0.00 0.00 47 1015.6
20260506190030 21 282 0.0 14.5 0.00 0.00 0.00 51 1015.7
20260506184528 21 279 8.0 14.5 0.00 0.00 0.00 49 1015.9
20260506183039 20 283 1.6 14.5 0.00 0.00 0.00 53 1016.0
20260506181526 21 284 6.4 14.5 0.00 0.00 0.00 51 1016.2
20260506180022 20 263 0.0 12.9 0.00 0.00 0.00 53 1016.1
20260506174520 19 275 4.8 9.7 0.00 0.00 0.00 53 1016.3
20260506173018 19 269 1.6 12.9 0.00 0.00 0.00 55 1016.3
20260506171524 18 294 3.2 9.7 0.00 0.00 0.00 59 1016.3
20260506170012 18 282 1.6 8.0 0.00 0.00 0.00 60 1016.3
20260506164510 18 296 1.6 6.4 0.00 0.00 0.00 61 1016.2
20260506163006 17 285 4.8 8.0 0.00 0.00 0.00 64 1016.3
20260506161502 16 71 1.6 6.4 0.00 0.00 0.00 67 1016.2
20260506160109 15 106 0.0 6.4 0.00 0.00 0.00 69 1016.3
20260506154555 15 109 1.6 6.4 0.00 0.00 0.00 73 1016.3
20260506153050 14 92 0.0 6.4 0.00 0.00 0.00 75 1016.5
20260506151547 13 103 1.6 6.4 0.00 0.00 0.00 78 1016.3
20260506150045 12 98 3.2 6.4 0.00 0.00 0.00 81 1016.3
20260506144558 12 103 1.6 9.7 0.00 0.00 0.00 84 1016.4
20260506143043 11 98 0.0 6.4 0.00 0.00 0.00 86 1016.3
20260506141542 10 84 1.6 4.8 0.00 0.00 0.00 87 1016.4
20260506140044 10 111 1.6 6.4 0.00 0.00 0.00 88 1016.3
20260506134540 9 275 1.6 4.8 0.00 0.00 0.00 89 1016.3
20260506133038 8 271 0.0 3.2 0.00 0.00 0.00 89 1016.1
20260506131537 8 271 0.0 3.2 0.00 0.00 0.00 89 1015.9
20260506130025 8 271 0.0 3.2 0.00 0.00 0.00 89 1015.7
20260506124525 8 271 1.6 3.2 0.00 0.00 0.00 89 1015.7
20260506123031 8 270 1.6 4.8 0.00 0.00 0.00 89 1015.7
20260506121524 8 269 1.6 4.8 0.00 0.00 0.00 89 1015.6
20260506120028 9 269 1.6 4.8 0.00 0.08 0.00 88 1015.5
20260506114517 9 269 1.6 3.2 0.00 0.08 0.00 87 1015.6
20260506113026 9 269 1.6 3.2 0.00 0.08 0.00 87 1015.5
20260506111514 9 269 1.6 3.2 0.00 0.08 0.00 86 1015.5
20260506110012 10 269 1.6 3.2 0.00 0.18 0.00 86 1015.5
20260506104509 10 269 1.6 3.2 0.00 0.18 0.00 86 1015.5
20260506103011 10 269 0.0 3.2 0.00 0.18 0.00 86 1015.4
20260506101507 10 269 0.0 3.2 0.00 0.18 0.00 85 1015.4
20260506100009 10 268 1.6 4.8 0.00 0.41 0.00 85 1015.4
20260506094506 10 265 1.6 3.2 0.00 0.41 0.00 85 1015.4
20260506093001 10 264 0.0 3.2 0.00 0.41 0.00 86 1015.6
20260506091607 11 257 0.0 1.6 0.00 0.41 0.00 85 1015.4
20260506090058 11 257 0.0 1.6 0.00 0.41 0.00 84 1015.5